Year,Month,Day,Hour,Minute,Value (Times are PST for temperature in C)
2009,07,28,00,00,26.30
2009,07,28,00,01,26.40
2009,07,28,00,02,26.50
2009,07,28,00,03,26.50
2009,07,28,00,04,26.60
2009,07,28,00,05,26.60
2009,07,28,00,06,26.60
2009,07,28,00,07,26.60
2009,07,28,00,08,26.70
2009,07,28,00,09,26.70
2009,07,28,00,10,26.80
2009,07,28,00,11,26.80
2009,07,28,00,12,26.90
2009,07,28,00,13,26.90
2009,07,28,00,14,26.90
2009,07,28,00,15,26.90
2009,07,28,00,16,26.90
2009,07,28,00,17,27.00
2009,07,28,00,18,27.00
2009,07,28,00,19,27.00
2009,07,28,00,20,26.90
2009,07,28,00,21,26.90
2009,07,28,00,22,26.90
2009,07,28,00,23,26.90
2009,07,28,00,24,26.90
2009,07,28,00,25,26.80
2009,07,28,00,26,26.80
2009,07,28,00,27,26.80
2009,07,28,00,28,26.70
2009,07,28,00,29,26.70
2009,07,28,00,30,26.70
2009,07,28,00,31,26.60
2009,07,28,00,32,26.60
2009,07,28,00,33,26.60
2009,07,28,00,34,26.50
2009,07,28,00,35,26.50
2009,07,28,00,36,26.50
2009,07,28,00,37,26.40
2009,07,28,00,38,26.40
2009,07,28,00,39,26.40
2009,07,28,00,40,26.40
2009,07,28,00,41,26.40
2009,07,28,00,42,26.40
2009,07,28,00,43,26.40
2009,07,28,00,44,26.40
2009,07,28,00,45,26.40
2009,07,28,00,46,26.40
2009,07,28,00,47,26.40
2009,07,28,00,48,26.40
2009,07,28,00,49,26.40
2009,07,28,00,50,26.40
2009,07,28,00,51,26.40
2009,07,28,00,52,26.40
2009,07,28,00,53,26.40
2009,07,28,00,54,26.40
2009,07,28,00,55,26.40
2009,07,28,00,56,26.40
2009,07,28,00,57,26.40
2009,07,28,00,58,26.40
2009,07,28,00,59,26.40
2009,07,28,01,00,26.30
2009,07,28,01,01,26.30
2009,07,28,01,02,26.30
2009,07,28,01,03,26.30
2009,07,28,01,04,26.20
2009,07,28,01,05,26.20
2009,07,28,01,06,26.20
2009,07,28,01,07,26.20
2009,07,28,01,08,26.20
2009,07,28,01,09,26.10
2009,07,28,01,10,26.10
2009,07,28,01,11,26.10
2009,07,28,01,12,26.00
2009,07,28,01,13,25.90
2009,07,28,01,14,25.90
2009,07,28,01,15,25.90
2009,07,28,01,16,25.80
2009,07,28,01,17,25.70
2009,07,28,01,18,25.70
2009,07,28,01,19,25.60
2009,07,28,01,20,25.50
2009,07,28,01,21,25.50
2009,07,28,01,22,25.40
2009,07,28,01,23,25.30
2009,07,28,01,24,25.30
2009,07,28,01,25,25.20
2009,07,28,01,26,25.20
2009,07,28,01,27,25.10
2009,07,28,01,28,25.00
2009,07,28,01,29,25.00
2009,07,28,01,30,24.90
2009,07,28,01,31,24.90
2009,07,28,01,32,24.90
2009,07,28,01,33,24.80
2009,07,28,01,34,24.80
2009,07,28,01,35,24.80
2009,07,28,01,36,24.90
2009,07,28,01,37,24.90
2009,07,28,01,38,24.80
2009,07,28,01,39,24.80
2009,07,28,01,40,24.80
2009,07,28,01,41,24.70
2009,07,28,01,42,24.70
2009,07,28,01,43,24.60
2009,07,28,01,44,24.50
2009,07,28,01,45,24.40
2009,07,28,01,46,24.30
2009,07,28,01,47,24.20
2009,07,28,01,48,24.20
2009,07,28,01,49,24.10
2009,07,28,01,50,24.10
2009,07,28,01,51,24.00
2009,07,28,01,52,23.90
2009,07,28,01,53,24.00
2009,07,28,01,54,24.10
2009,07,28,01,55,24.30
2009,07,28,01,56,24.50
2009,07,28,01,57,24.70
2009,07,28,01,58,24.90
2009,07,28,01,59,25.00
2009,07,28,02,00,25.10
2009,07,28,02,01,25.20
2009,07,28,02,02,25.30
2009,07,28,02,03,25.40
2009,07,28,02,04,25.40
2009,07,28,02,05,25.50
2009,07,28,02,06,25.50
2009,07,28,02,07,25.50
2009,07,28,02,08,25.50
2009,07,28,02,09,25.50
2009,07,28,02,10,25.50
2009,07,28,02,11,25.50
2009,07,28,02,12,25.50
2009,07,28,02,13,25.50
2009,07,28,02,14,25.50
2009,07,28,02,15,25.40
2009,07,28,02,16,25.40
2009,07,28,02,17,25.40
2009,07,28,02,18,25.30
2009,07,28,02,19,25.30
2009,07,28,02,20,25.30
2009,07,28,02,21,25.30
2009,07,28,02,22,25.30
2009,07,28,02,23,25.20
2009,07,28,02,24,25.20
2009,07,28,02,25,25.20
2009,07,28,02,26,25.10
2009,07,28,02,27,25.10
2009,07,28,02,28,25.10
2009,07,28,02,29,25.00
2009,07,28,02,30,25.00
2009,07,28,02,31,25.00
2009,07,28,02,32,24.90
2009,07,28,02,33,24.90
2009,07,28,02,34,24.90
2009,07,28,02,35,24.80
2009,07,28,02,36,24.80
2009,07,28,02,37,24.80
2009,07,28,02,38,24.80
2009,07,28,02,39,24.70
2009,07,28,02,40,24.70
2009,07,28,02,41,24.70
2009,07,28,02,42,24.60
2009,07,28,02,43,24.60
2009,07,28,02,44,24.60
2009,07,28,02,45,24.60
2009,07,28,02,46,24.60
2009,07,28,02,47,24.60
2009,07,28,02,48,24.60
2009,07,28,02,49,24.60
2009,07,28,02,50,24.60
2009,07,28,02,51,24.60
2009,07,28,02,52,24.60
2009,07,28,02,53,24.60
2009,07,28,02,54,24.60
2009,07,28,02,55,24.60
2009,07,28,02,56,24.60
2009,07,28,02,57,24.50
2009,07,28,02,58,24.50
2009,07,28,02,59,24.50
2009,07,28,03,00,24.50
2009,07,28,03,01,24.50
2009,07,28,03,02,24.40
2009,07,28,03,03,24.50
2009,07,28,03,04,24.50
2009,07,28,03,05,24.50
2009,07,28,03,06,24.50
2009,07,28,03,07,24.40
2009,07,28,03,08,24.40
2009,07,28,03,09,24.40
2009,07,28,03,10,24.40
2009,07,28,03,11,24.30
2009,07,28,03,12,24.30
2009,07,28,03,13,24.30
2009,07,28,03,14,24.20
2009,07,28,03,15,24.20
2009,07,28,03,16,24.10
2009,07,28,03,17,24.00
2009,07,28,03,18,23.90
2009,07,28,03,19,23.80
2009,07,28,03,20,23.70
2009,07,28,03,21,23.60
2009,07,28,03,22,23.60
2009,07,28,03,23,23.50
2009,07,28,03,24,23.40
2009,07,28,03,25,23.30
2009,07,28,03,26,23.30
2009,07,28,03,27,23.20
2009,07,28,03,28,23.20
2009,07,28,03,29,23.10
2009,07,28,03,30,23.10
2009,07,28,03,31,23.10
2009,07,28,03,32,23.10
2009,07,28,03,33,23.10
2009,07,28,03,34,23.10
2009,07,28,03,35,23.10
2009,07,28,03,36,23.10
2009,07,28,03,37,23.10
2009,07,28,03,38,23.20
2009,07,28,03,39,23.20
2009,07,28,03,40,23.20
2009,07,28,03,41,23.30
2009,07,28,03,42,23.30
2009,07,28,03,43,23.30
2009,07,28,03,44,23.40
2009,07,28,03,45,23.50
2009,07,28,03,46,23.50
2009,07,28,03,47,23.60
2009,07,28,03,48,23.60
2009,07,28,03,49,23.70
2009,07,28,03,50,23.80
2009,07,28,03,51,23.90
2009,07,28,03,52,24.00
2009,07,28,03,53,24.10
2009,07,28,03,54,24.20
2009,07,28,03,55,24.30
2009,07,28,03,56,24.30
2009,07,28,03,57,24.30
2009,07,28,03,58,24.40
2009,07,28,03,59,24.40
2009,07,28,04,00,24.40
2009,07,28,04,01,24.50
2009,07,28,04,02,24.40
2009,07,28,04,03,24.40
2009,07,28,04,04,24.40
2009,07,28,04,05,24.40
2009,07,28,04,06,24.40
2009,07,28,04,07,24.40
2009,07,28,04,08,24.40
2009,07,28,04,09,24.40
2009,07,28,04,10,24.40
2009,07,28,04,11,24.40
2009,07,28,04,12,24.40
2009,07,28,04,13,24.40
2009,07,28,04,14,24.40
2009,07,28,04,15,24.40
2009,07,28,04,16,24.40
2009,07,28,04,17,24.40
2009,07,28,04,18,24.40
2009,07,28,04,19,24.40
2009,07,28,04,20,24.40
2009,07,28,04,21,24.40
2009,07,28,04,22,24.40
2009,07,28,04,23,24.40
2009,07,28,04,24,24.40
2009,07,28,04,25,24.40
2009,07,28,04,26,24.40
2009,07,28,04,27,24.40
2009,07,28,04,28,24.40
2009,07,28,04,29,24.40
2009,07,28,04,30,24.40
2009,07,28,04,31,24.40
2009,07,28,04,32,24.30
2009,07,28,04,33,24.30
2009,07,28,04,34,24.30
2009,07,28,04,35,24.30
2009,07,28,04,36,24.20
2009,07,28,04,37,24.20
2009,07,28,04,38,24.20
2009,07,28,04,39,24.10
2009,07,28,04,40,24.10
2009,07,28,04,41,24.00
2009,07,28,04,42,24.00
2009,07,28,04,43,23.90
2009,07,28,04,44,23.90
2009,07,28,04,45,23.90
2009,07,28,04,46,23.80
2009,07,28,04,47,23.80
2009,07,28,04,48,23.80
2009,07,28,04,49,23.80
2009,07,28,04,50,23.70
2009,07,28,04,51,23.70
2009,07,28,04,52,23.70
2009,07,28,04,53,23.70
2009,07,28,04,54,23.70
2009,07,28,04,55,23.70
2009,07,28,04,56,23.70
2009,07,28,04,57,23.70
2009,07,28,04,58,23.70
2009,07,28,04,59,23.80
2009,07,28,05,00,23.80
2009,07,28,05,01,23.80
2009,07,28,05,02,23.80
2009,07,28,05,03,23.80
2009,07,28,05,04,23.80
2009,07,28,05,05,23.80
2009,07,28,05,06,23.80
2009,07,28,05,07,23.80
2009,07,28,05,08,23.80
2009,07,28,05,09,23.80
2009,07,28,05,10,23.70
2009,07,28,05,11,23.70
2009,07,28,05,12,23.70
2009,07,28,05,13,23.60
2009,07,28,05,14,23.50
2009,07,28,05,15,23.50
2009,07,28,05,16,23.40
2009,07,28,05,17,23.30
2009,07,28,05,18,23.30
2009,07,28,05,19,23.20
2009,07,28,05,20,23.10
2009,07,28,05,21,23.10
2009,07,28,05,22,23.00
2009,07,28,05,23,23.00
2009,07,28,05,24,23.00
2009,07,28,05,25,22.90
2009,07,28,05,26,22.90
2009,07,28,05,27,22.90
2009,07,28,05,28,22.90
2009,07,28,05,29,22.90
2009,07,28,05,30,22.80
2009,07,28,05,31,22.90
2009,07,28,05,32,22.90
2009,07,28,05,33,22.90
2009,07,28,05,34,22.90
2009,07,28,05,35,23.00
2009,07,28,05,36,23.00
2009,07,28,05,37,23.00
2009,07,28,05,38,23.10
2009,07,28,05,39,23.10
2009,07,28,05,40,23.10
2009,07,28,05,41,23.10
2009,07,28,05,42,23.10
2009,07,28,05,43,23.20
2009,07,28,05,44,23.20
2009,07,28,05,45,23.20
2009,07,28,05,46,23.20
2009,07,28,05,47,23.30
2009,07,28,05,48,23.30
2009,07,28,05,49,23.30
2009,07,28,05,50,23.30
2009,07,28,05,51,23.30
2009,07,28,05,52,23.30
2009,07,28,05,53,23.30
2009,07,28,05,54,23.30
2009,07,28,05,55,23.30
2009,07,28,05,56,23.30
2009,07,28,05,57,23.30
2009,07,28,05,58,23.30
2009,07,28,05,59,23.30
2009,07,28,06,00,23.30
2009,07,28,06,01,23.40
2009,07,28,06,02,23.40
2009,07,28,06,03,23.30
2009,07,28,06,04,23.30
2009,07,28,06,05,23.30
2009,07,28,06,06,23.30
2009,07,28,06,07,23.20
2009,07,28,06,08,23.20
2009,07,28,06,09,23.10
2009,07,28,06,10,23.00
2009,07,28,06,11,22.90
2009,07,28,06,12,22.90
2009,07,28,06,13,22.80
2009,07,28,06,14,22.80
2009,07,28,06,15,22.80
2009,07,28,06,16,22.70
2009,07,28,06,17,22.60
2009,07,28,06,18,22.60
2009,07,28,06,19,22.60
2009,07,28,06,20,22.50
2009,07,28,06,21,22.50
2009,07,28,06,22,22.50
2009,07,28,06,23,22.50
2009,07,28,06,24,22.50
2009,07,28,06,25,22.50
2009,07,28,06,26,22.50
2009,07,28,06,27,22.50
2009,07,28,06,28,22.50
2009,07,28,06,29,22.50
2009,07,28,06,30,22.60
2009,07,28,06,31,22.60
2009,07,28,06,32,22.50
2009,07,28,06,33,22.50
2009,07,28,06,34,22.50
2009,07,28,06,35,22.40
2009,07,28,06,36,22.40
2009,07,28,06,37,22.40
2009,07,28,06,38,22.40
2009,07,28,06,39,22.30
2009,07,28,06,40,22.30
2009,07,28,06,41,22.30
2009,07,28,06,42,22.30
2009,07,28,06,43,22.30
2009,07,28,06,44,22.30
2009,07,28,06,45,22.40
2009,07,28,06,46,22.40
2009,07,28,06,47,22.40
2009,07,28,06,48,22.40
2009,07,28,06,49,22.40
2009,07,28,06,50,22.40
2009,07,28,06,51,22.40
2009,07,28,06,52,22.50
2009,07,28,06,53,22.60
2009,07,28,06,54,22.70
2009,07,28,06,55,22.80
2009,07,28,06,56,22.90
2009,07,28,06,57,23.10
2009,07,28,06,58,23.20
2009,07,28,06,59,23.30
2009,07,28,07,00,23.40
2009,07,28,07,01,23.50
2009,07,28,07,02,23.60
2009,07,28,07,03,23.60
2009,07,28,07,04,23.70
2009,07,28,07,05,23.80
2009,07,28,07,06,23.80
2009,07,28,07,07,23.80
2009,07,28,07,08,23.90
2009,07,28,07,09,23.90
2009,07,28,07,10,24.00
2009,07,28,07,11,24.00
2009,07,28,07,12,24.00
2009,07,28,07,13,24.10
2009,07,28,07,14,24.10
2009,07,28,07,15,24.10
2009,07,28,07,16,24.20
2009,07,28,07,17,24.20
2009,07,28,07,18,24.20
2009,07,28,07,19,24.20
2009,07,28,07,20,24.20
2009,07,28,07,21,24.20
2009,07,28,07,22,24.30
2009,07,28,07,23,24.30
2009,07,28,07,24,24.30
2009,07,28,07,25,24.30
2009,07,28,07,26,24.30
2009,07,28,07,27,24.30
2009,07,28,07,28,24.30
2009,07,28,07,29,24.30
2009,07,28,07,30,24.30
2009,07,28,07,31,24.30
2009,07,28,07,32,24.30
2009,07,28,07,33,24.30
2009,07,28,07,34,24.30
2009,07,28,07,35,24.30
2009,07,28,07,36,24.30
2009,07,28,07,37,24.30
2009,07,28,07,38,24.30
2009,07,28,07,39,24.30
2009,07,28,07,40,24.30
2009,07,28,07,41,24.30
2009,07,28,07,42,24.30
2009,07,28,07,43,24.30
2009,07,28,07,44,24.30
2009,07,28,07,45,24.30
2009,07,28,07,46,24.30
2009,07,28,07,47,24.30
2009,07,28,07,48,24.30
2009,07,28,07,49,24.20
2009,07,28,07,50,24.20
2009,07,28,07,51,24.20
2009,07,28,07,52,24.20
2009,07,28,07,53,24.20
2009,07,28,07,54,24.20
2009,07,28,07,55,24.20
2009,07,28,07,56,24.20
2009,07,28,07,57,24.30
2009,07,28,07,58,24.30
2009,07,28,07,59,24.30
2009,07,28,08,00,24.30
2009,07,28,08,01,24.30
2009,07,28,08,02,24.30
2009,07,28,08,03,24.30
2009,07,28,08,04,24.30
2009,07,28,08,05,24.40
2009,07,28,08,06,24.40
2009,07,28,08,07,24.40
2009,07,28,08,08,24.40
2009,07,28,08,09,24.50
2009,07,28,08,10,24.50
2009,07,28,08,11,24.50
2009,07,28,08,12,24.60
2009,07,28,08,13,24.60
2009,07,28,08,14,24.60
2009,07,28,08,15,24.70
2009,07,28,08,16,24.70
2009,07,28,08,17,24.80
2009,07,28,08,18,24.90
2009,07,28,08,19,24.90
2009,07,28,08,20,25.00
2009,07,28,08,21,25.10
2009,07,28,08,22,25.20
2009,07,28,08,23,25.30
2009,07,28,08,24,25.40
2009,07,28,08,25,25.50
2009,07,28,08,26,25.70
2009,07,28,08,27,25.80
2009,07,28,08,28,25.90
2009,07,28,08,29,25.90
2009,07,28,08,30,25.90
2009,07,28,08,31,25.90
2009,07,28,08,32,26.00
2009,07,28,08,33,26.10
2009,07,28,08,34,26.10
2009,07,28,08,35,26.10
2009,07,28,08,36,26.20
2009,07,28,08,37,26.20
2009,07,28,08,38,26.20
2009,07,28,08,39,26.20
2009,07,28,08,40,26.20
2009,07,28,08,41,26.20
2009,07,28,08,42,26.20
2009,07,28,08,43,26.30
2009,07,28,08,44,26.30
2009,07,28,08,45,26.30
2009,07,28,08,46,26.30
2009,07,28,08,47,26.30
2009,07,28,08,48,26.20
2009,07,28,08,49,26.20
2009,07,28,08,50,26.20
2009,07,28,08,51,26.10
2009,07,28,08,52,26.10
2009,07,28,08,53,26.10
2009,07,28,08,54,26.10
2009,07,28,08,55,26.10
2009,07,28,08,56,26.10
2009,07,28,08,57,26.10
2009,07,28,08,58,26.10
2009,07,28,08,59,26.10
2009,07,28,09,00,26.20
2009,07,28,09,01,26.20
2009,07,28,09,02,26.10
2009,07,28,09,03,26.10
2009,07,28,09,04,26.00
2009,07,28,09,05,26.00
2009,07,28,09,06,25.90
2009,07,28,09,07,25.90
2009,07,28,09,08,25.90
2009,07,28,09,09,25.80
2009,07,28,09,10,25.80
2009,07,28,09,11,25.80
2009,07,28,09,12,25.80
2009,07,28,09,13,25.90
2009,07,28,09,14,25.90
2009,07,28,09,15,26.00
2009,07,28,09,16,26.10
2009,07,28,09,17,26.10
2009,07,28,09,18,26.20
2009,07,28,09,19,26.20
2009,07,28,09,20,26.20
2009,07,28,09,21,26.20
2009,07,28,09,22,26.30
2009,07,28,09,23,26.20
2009,07,28,09,24,26.20
2009,07,28,09,25,26.20
2009,07,28,09,26,26.10
2009,07,28,09,27,26.10
2009,07,28,09,28,26.20
2009,07,28,09,29,26.20
2009,07,28,09,30,26.20
2009,07,28,09,31,26.20
2009,07,28,09,32,26.10
2009,07,28,09,33,26.10
2009,07,28,09,34,26.10
2009,07,28,09,35,26.20
2009,07,28,09,36,26.20
2009,07,28,09,37,26.20
2009,07,28,09,38,26.20
2009,07,28,09,39,26.20
2009,07,28,09,40,26.30
2009,07,28,09,41,26.30
2009,07,28,09,42,26.30
2009,07,28,09,43,26.30
2009,07,28,09,44,26.20
2009,07,28,09,45,26.20
2009,07,28,09,46,26.20
2009,07,28,09,47,26.10
2009,07,28,09,48,26.10
2009,07,28,09,49,25.90
2009,07,28,09,50,25.90
2009,07,28,09,51,25.80
2009,07,28,09,52,25.80
2009,07,28,09,53,25.70
2009,07,28,09,54,25.70
2009,07,28,09,55,25.70
2009,07,28,09,56,25.70
2009,07,28,09,57,25.60
2009,07,28,09,58,25.60
2009,07,28,09,59,25.60
2009,07,28,10,00,25.60
2009,07,28,10,01,25.60
2009,07,28,10,02,25.60
2009,07,28,10,03,25.60
2009,07,28,10,04,25.50
2009,07,28,10,05,25.60
2009,07,28,10,06,25.60
2009,07,28,10,07,25.60
2009,07,28,10,08,25.60
2009,07,28,10,09,25.70
2009,07,28,10,10,25.80
2009,07,28,10,11,25.80
2009,07,28,10,12,25.90
2009,07,28,10,13,25.90
2009,07,28,10,14,25.90
2009,07,28,10,15,25.90
2009,07,28,10,16,26.00
2009,07,28,10,17,26.00
2009,07,28,10,18,26.10
2009,07,28,10,19,26.10
2009,07,28,10,20,26.20
2009,07,28,10,21,26.20
2009,07,28,10,22,26.10
2009,07,28,10,23,26.10
2009,07,28,10,24,26.10
2009,07,28,10,25,26.10
2009,07,28,10,26,26.10
2009,07,28,10,27,26.00
2009,07,28,10,28,25.90
2009,07,28,10,29,26.00
2009,07,28,10,30,26.00
2009,07,28,10,31,26.10
2009,07,28,10,32,26.20
2009,07,28,10,33,26.30
2009,07,28,10,34,26.30
2009,07,28,10,35,26.40
2009,07,28,10,36,26.60
2009,07,28,10,37,26.70
2009,07,28,10,38,26.70
2009,07,28,10,39,26.80
2009,07,28,10,40,26.80
2009,07,28,10,41,26.90
2009,07,28,10,42,26.90
2009,07,28,10,43,26.90
2009,07,28,10,44,26.90
2009,07,28,10,45,26.90
2009,07,28,10,46,26.90
2009,07,28,10,47,26.80
2009,07,28,10,48,26.80
2009,07,28,10,49,26.80
2009,07,28,10,50,26.80
2009,07,28,10,51,26.60
2009,07,28,10,52,26.50
2009,07,28,10,53,26.40
2009,07,28,10,54,26.40
2009,07,28,10,55,26.40
2009,07,28,10,56,26.40
2009,07,28,10,57,26.30
2009,07,28,10,58,26.20
2009,07,28,10,59,26.10
2009,07,28,11,00,26.00
2009,07,28,11,01,26.00
2009,07,28,11,02,26.00
2009,07,28,11,03,25.90
2009,07,28,11,04,25.90
2009,07,28,11,05,25.80
2009,07,28,11,06,25.70
2009,07,28,11,07,25.60
2009,07,28,11,08,25.70
2009,07,28,11,09,25.70
2009,07,28,11,10,25.70
2009,07,28,11,11,25.70
2009,07,28,11,12,25.70
2009,07,28,11,13,25.80
2009,07,28,11,14,25.90
2009,07,28,11,15,25.90
2009,07,28,11,16,26.00
2009,07,28,11,17,26.10
2009,07,28,11,18,26.20
2009,07,28,11,19,26.20
2009,07,28,11,20,26.30
2009,07,28,11,21,26.30
2009,07,28,11,22,26.30
2009,07,28,11,23,26.30
2009,07,28,11,24,26.30
2009,07,28,11,25,26.30
2009,07,28,11,26,26.20
2009,07,28,11,27,26.30
2009,07,28,11,28,26.30
2009,07,28,11,29,26.30
2009,07,28,11,30,26.30
2009,07,28,11,31,26.30
2009,07,28,11,32,26.30
2009,07,28,11,33,26.40
2009,07,28,11,34,26.40
2009,07,28,11,35,26.50
2009,07,28,11,36,26.60
2009,07,28,11,37,26.70
2009,07,28,11,38,26.90
2009,07,28,11,39,27.00
2009,07,28,11,40,27.10
2009,07,28,11,41,27.10
2009,07,28,11,42,27.20
2009,07,28,11,43,27.30
2009,07,28,11,44,27.30
2009,07,28,11,45,27.40
2009,07,28,11,46,27.50
2009,07,28,11,47,27.60
2009,07,28,11,48,27.60
2009,07,28,11,49,27.60
2009,07,28,11,50,27.60
2009,07,28,11,51,27.70
2009,07,28,11,52,27.70
2009,07,28,11,53,27.70
2009,07,28,11,54,27.70
2009,07,28,11,55,27.70
2009,07,28,11,56,27.70
2009,07,28,11,57,27.70
2009,07,28,11,58,27.70
2009,07,28,11,59,27.70
2009,07,28,12,00,27.70
2009,07,28,12,01,27.70
2009,07,28,12,02,27.80
2009,07,28,12,03,27.80
2009,07,28,12,04,27.90
2009,07,28,12,05,27.90
2009,07,28,12,06,27.90
2009,07,28,12,07,27.90
2009,07,28,12,08,27.90
2009,07,28,12,09,28.00
2009,07,28,12,10,28.00
2009,07,28,12,11,28.00
2009,07,28,12,12,27.90
2009,07,28,12,13,27.70
2009,07,28,12,14,27.60
2009,07,28,12,15,27.40
2009,07,28,12,16,27.40
2009,07,28,12,17,27.40
2009,07,28,12,18,27.40
2009,07,28,12,19,27.50
2009,07,28,12,20,27.50
2009,07,28,12,21,27.50
2009,07,28,12,22,27.60
2009,07,28,12,23,27.50
2009,07,28,12,24,27.40
2009,07,28,12,25,27.40
2009,07,28,12,26,27.40
2009,07,28,12,27,27.50
2009,07,28,12,28,27.50
2009,07,28,12,29,27.40
2009,07,28,12,30,27.30
2009,07,28,12,31,27.20
2009,07,28,12,32,27.10
2009,07,28,12,33,27.10
2009,07,28,12,34,27.00
2009,07,28,12,35,27.10
2009,07,28,12,36,27.10
2009,07,28,12,37,27.20
2009,07,28,12,38,27.30
2009,07,28,12,39,27.30
2009,07,28,12,40,27.40
2009,07,28,12,41,27.50
2009,07,28,12,42,27.70
2009,07,28,12,43,27.80
2009,07,28,12,44,27.80
2009,07,28,12,45,28.00
2009,07,28,12,46,28.10
2009,07,28,12,47,28.30
2009,07,28,12,48,28.40
2009,07,28,12,49,28.50
2009,07,28,12,50,28.60
2009,07,28,12,51,28.70
2009,07,28,12,52,28.80
2009,07,28,12,53,28.80
2009,07,28,12,54,28.80
2009,07,28,12,55,28.90
2009,07,28,12,56,28.90
2009,07,28,12,57,28.90
2009,07,28,12,58,28.90
2009,07,28,12,59,28.90
2009,07,28,13,00,29.00
2009,07,28,13,01,29.10
2009,07,28,13,02,29.20
2009,07,28,13,03,29.20
2009,07,28,13,04,29.20
2009,07,28,13,05,29.30
2009,07,28,13,06,29.40
2009,07,28,13,07,29.40
2009,07,28,13,08,29.50
2009,07,28,13,09,29.60
2009,07,28,13,10,29.60
2009,07,28,13,11,29.70
2009,07,28,13,12,29.80
2009,07,28,13,13,29.90
2009,07,28,13,14,30.00
2009,07,28,13,15,30.10
2009,07,28,13,16,30.20
2009,07,28,13,17,30.30
2009,07,28,13,18,30.40
2009,07,28,13,19,30.60
2009,07,28,13,20,30.60
2009,07,28,13,21,30.70
2009,07,28,13,22,30.80
2009,07,28,13,23,30.80
2009,07,28,13,24,30.80
2009,07,28,13,25,30.90
2009,07,28,13,26,31.00
2009,07,28,13,27,31.10
2009,07,28,13,28,31.20
2009,07,28,13,29,31.20
2009,07,28,13,30,31.30
2009,07,28,13,31,31.40
2009,07,28,13,32,31.40
2009,07,28,13,33,31.40
2009,07,28,13,34,31.40
2009,07,28,13,35,31.30
2009,07,28,13,36,31.30
2009,07,28,13,37,31.30
2009,07,28,13,38,31.30
2009,07,28,13,39,31.30
2009,07,28,13,40,31.30
2009,07,28,13,41,31.30
2009,07,28,13,42,31.40
2009,07,28,13,43,31.50
2009,07,28,13,44,31.60
2009,07,28,13,45,31.70
2009,07,28,13,46,31.70
2009,07,28,13,47,31.70
2009,07,28,13,48,31.70
2009,07,28,13,49,31.70
2009,07,28,13,50,31.70
2009,07,28,13,51,31.60
2009,07,28,13,52,31.60
2009,07,28,13,53,31.60
2009,07,28,13,54,31.60
2009,07,28,13,55,31.60
2009,07,28,13,56,31.60
2009,07,28,13,57,31.70
2009,07,28,13,58,31.80
2009,07,28,13,59,31.80
2009,07,28,14,00,31.80
2009,07,28,14,01,31.80
2009,07,28,14,02,31.80
2009,07,28,14,03,31.80
2009,07,28,14,04,31.80
2009,07,28,14,05,31.80
2009,07,28,14,06,31.70
2009,07,28,14,07,31.50
2009,07,28,14,08,31.30
2009,07,28,14,09,31.20
2009,07,28,14,10,31.10
2009,07,28,14,11,31.10
2009,07,28,14,12,31.20
2009,07,28,14,13,31.20
2009,07,28,14,14,31.10
2009,07,28,14,15,31.10
2009,07,28,14,16,31.20
2009,07,28,14,17,31.20
2009,07,28,14,18,31.30
2009,07,28,14,19,31.30
2009,07,28,14,20,31.30
2009,07,28,14,21,31.30
2009,07,28,14,22,31.20
2009,07,28,14,23,31.10
2009,07,28,14,24,31.10
2009,07,28,14,25,31.10
2009,07,28,14,26,31.20
2009,07,28,14,27,31.20
2009,07,28,14,28,31.30
2009,07,28,14,29,31.20
2009,07,28,14,30,31.20
2009,07,28,14,31,31.10
2009,07,28,14,32,31.10
2009,07,28,14,33,31.10
2009,07,28,14,34,31.20
2009,07,28,14,35,31.20
2009,07,28,14,36,31.20
2009,07,28,14,37,31.30
2009,07,28,14,38,31.30
2009,07,28,14,39,31.20
2009,07,28,14,40,31.20
2009,07,28,14,41,31.20
2009,07,28,14,42,31.20
2009,07,28,14,43,31.20
2009,07,28,14,44,31.20
2009,07,28,14,45,31.20
2009,07,28,14,46,31.20
2009,07,28,14,47,31.20
2009,07,28,14,48,31.20
2009,07,28,14,49,31.20
2009,07,28,14,50,31.30
2009,07,28,14,51,31.30
2009,07,28,14,52,31.40
2009,07,28,14,53,31.50
2009,07,28,14,54,31.50
2009,07,28,14,55,31.40
2009,07,28,14,56,31.50
2009,07,28,14,57,31.40
2009,07,28,14,58,31.40
2009,07,28,14,59,31.40
2009,07,28,15,00,31.50
2009,07,28,15,01,31.50
2009,07,28,15,02,31.50
2009,07,28,15,03,31.60
2009,07,28,15,04,31.60
2009,07,28,15,05,31.70
2009,07,28,15,06,31.70
2009,07,28,15,07,31.70
2009,07,28,15,08,31.70
2009,07,28,15,09,31.70
2009,07,28,15,10,31.70
2009,07,28,15,11,31.70
2009,07,28,15,12,31.70
2009,07,28,15,13,31.80
2009,07,28,15,14,31.80
2009,07,28,15,15,31.80
2009,07,28,15,16,31.80
2009,07,28,15,17,31.80
2009,07,28,15,18,31.80
2009,07,28,15,19,31.80
2009,07,28,15,20,31.90
2009,07,28,15,21,32.00
2009,07,28,15,22,32.10
2009,07,28,15,23,32.20
2009,07,28,15,24,32.20
2009,07,28,15,25,32.30
2009,07,28,15,26,32.30
2009,07,28,15,27,32.30
2009,07,28,15,28,32.30
2009,07,28,15,29,32.30
2009,07,28,15,30,32.30
2009,07,28,15,31,32.40
2009,07,28,15,32,32.50
2009,07,28,15,33,32.60
2009,07,28,15,34,32.70
2009,07,28,15,35,32.80
2009,07,28,15,36,32.90
2009,07,28,15,37,33.00
2009,07,28,15,38,33.10
2009,07,28,15,39,33.10
2009,07,28,15,40,33.10
2009,07,28,15,41,33.10
2009,07,28,15,42,33.10
2009,07,28,15,43,33.10
2009,07,28,15,44,33.10
2009,07,28,15,45,33.10
2009,07,28,15,46,33.10
2009,07,28,15,47,33.10
2009,07,28,15,48,33.10
2009,07,28,15,49,33.10
2009,07,28,15,50,33.10
2009,07,28,15,51,33.10
2009,07,28,15,52,33.10
2009,07,28,15,53,33.10
2009,07,28,15,54,33.10
2009,07,28,15,55,33.10
2009,07,28,15,56,33.10
2009,07,28,15,57,33.10
2009,07,28,15,58,33.10
2009,07,28,15,59,33.10
2009,07,28,16,00,33.00
2009,07,28,16,01,33.00
2009,07,28,16,02,33.00
2009,07,28,16,03,33.00
2009,07,28,16,04,33.10
2009,07,28,16,05,33.10
2009,07,28,16,06,33.10
2009,07,28,16,07,33.10
2009,07,28,16,08,33.00
2009,07,28,16,09,33.00
2009,07,28,16,10,32.90
2009,07,28,16,11,32.90
2009,07,28,16,12,32.90
2009,07,28,16,13,32.90
2009,07,28,16,14,33.00
2009,07,28,16,15,33.10
2009,07,28,16,16,33.10
2009,07,28,16,17,33.10
2009,07,28,16,18,33.10
2009,07,28,16,19,33.10
2009,07,28,16,20,33.10
2009,07,28,16,21,33.10
2009,07,28,16,22,33.20
2009,07,28,16,23,33.20
2009,07,28,16,24,33.30
2009,07,28,16,25,33.30
2009,07,28,16,26,33.30
2009,07,28,16,27,33.40
2009,07,28,16,28,33.50
2009,07,28,16,29,33.50
2009,07,28,16,30,33.50
2009,07,28,16,31,33.60
2009,07,28,16,32,33.60
2009,07,28,16,33,33.60
2009,07,28,16,34,33.70
2009,07,28,16,35,33.70
2009,07,28,16,36,33.70
2009,07,28,16,37,33.70
2009,07,28,16,38,33.70
2009,07,28,16,39,33.80
2009,07,28,16,40,33.80
2009,07,28,16,41,33.90
2009,07,28,16,42,33.90
2009,07,28,16,43,33.90
2009,07,28,16,44,33.90
2009,07,28,16,45,34.00
2009,07,28,16,46,34.10
2009,07,28,16,47,34.20
2009,07,28,16,48,34.20
2009,07,28,16,49,34.30
2009,07,28,16,50,34.30
2009,07,28,16,51,34.40
2009,07,28,16,52,34.40
2009,07,28,16,53,34.40
2009,07,28,16,54,34.40
2009,07,28,16,55,34.40
2009,07,28,16,56,34.40
2009,07,28,16,57,34.40
2009,07,28,16,58,34.30
2009,07,28,16,59,34.30
2009,07,28,17,00,34.30
2009,07,28,17,01,34.30
2009,07,28,17,02,34.40
2009,07,28,17,03,34.40
2009,07,28,17,04,34.40
2009,07,28,17,05,34.40
2009,07,28,17,06,34.40
2009,07,28,17,07,34.40
2009,07,28,17,08,34.40
2009,07,28,17,09,34.40
2009,07,28,17,10,34.50
2009,07,28,17,11,34.50
2009,07,28,17,12,34.40
2009,07,28,17,13,34.40
2009,07,28,17,14,34.40
2009,07,28,17,15,34.40
2009,07,28,17,16,34.30
2009,07,28,17,17,34.10
2009,07,28,17,18,33.90
2009,07,28,17,19,33.80